EW4504 Weather Reports


time (UTC)temp
C
wind
direction
speed
KPH
gust
KPH
rain 1hr
cm
rain 24hr
cm
rain mn
cm
humidity
%
barometer
mb
20260504010530 16 0 0.0 3.2 0.00 0.00 0.00 50 1017.3
20260504010051 16 0 0.0 3.2 0.00 0.00 0.00 49 1017.3
20260504005533 16 0 0.0 4.8 0.00 0.00 0.00 48 1017.3
20260504005033 17 267 1.6 4.8 0.00 0.00 0.00 48 1017.2
20260504004543 17 267 0.0 6.4 0.00 0.00 0.00 47 1017.1
20260504004029 17 0 0.0 6.4 0.00 0.00 0.00 46 1017.1
20260504003530 17 267 1.6 6.4 0.00 0.00 0.00 46 1017.0
20260504003043 17 272 1.6 4.8 0.00 0.00 0.00 45 1016.8
20260504002529 17 273 1.6 4.8 0.00 0.00 0.00 44 1016.8
20260504002029 18 275 1.6 4.8 0.00 0.00 0.00 43 1016.9
20260504001547 18 0 0.0 6.4 0.00 0.00 0.00 42 1016.8
20260504001029 18 0 0.0 6.4 0.00 0.00 0.00 42 1016.9
20260504000529 18 276 0.0 6.4 0.00 0.00 0.00 41 1016.9
20260504000045 18 290 1.6 4.8 0.00 0.00 0.00 40 1016.9
20260503235530 18 0 1.6 4.8 0.00 0.00 0.00 40 1016.8
20260503235031 18 0 1.6 4.8 0.00 0.00 0.00 39 1016.8
20260503234535 18 268 1.6 11.3 0.00 0.00 0.00 39 1016.9
20260503234030 18 0 1.6 11.3 0.00 0.00 0.00 39 1016.9
20260503233530 19 325 1.6 6.4 0.00 0.00 0.00 40 1016.8
20260503233050 19 279 3.2 11.3 0.00 0.00 0.00 39 1016.8
20260503232529 19 0 3.2 12.9 0.00 0.00 0.00 40 1016.8
20260503232030 19 294 3.2 12.9 0.00 0.00 0.00 39 1016.7
20260503231544 19 302 1.6 11.3 0.00 0.00 0.00 40 1016.8
20260503231031 19 36 1.6 12.9 0.00 0.00 0.00 40 1016.8
20260503230533 19 180 3.2 12.9 0.00 0.00 0.00 41 1016.9
20260503230040 19 0 3.2 12.9 0.00 0.00 0.00 40 1016.9
20260503225530 19 212 3.2 16.1 0.00 0.00 0.00 40 1016.9
20260503225030 19 260 4.8 16.1 0.00 0.00 0.00 40 1016.9
20260503224542 20 230 3.2 16.1 0.00 0.00 0.00 40 1017.0
20260503224032 20 242 3.2 12.9 0.00 0.00 0.00 39 1016.8
20260503223529 20 236 3.2 12.9 0.00 0.00 0.00 39 1017.0
20260503223038 20 326 4.8 16.1 0.00 0.00 0.00 37 1017.0
20260503222529 20 303 3.2 17.7 0.00 0.00 0.00 37 1017.0
20260503222030 20 199 8.0 17.7 0.00 0.00 0.00 37 1017.0
20260503221550 20 267 6.4 17.7 0.00 0.00 0.00 36 1017.0
20260503221030 20 250 3.2 17.7 0.00 0.00 0.00 37 1017.1
20260503220530 20 284 6.4 16.1 0.00 0.00 0.00 37 1017.1
20260503220057 20 224 6.4 16.1 0.00 0.00 0.00 37 1017.1
20260503215531 20 5 3.2 19.3 0.00 0.00 0.00 37 1017.1
20260503215030 20 284 3.2 19.3 0.00 0.00 0.00 37 1017.0
20260503214540 20 198 9.7 19.3 0.00 0.00 0.00 37 1017.1
20260503214034 20 210 8.0 17.7 0.00 0.00 0.00 37 1017.2
20260503213529 20 256 3.2 14.5 0.00 0.00 0.00 38 1017.1
20260503213039 20 181 4.8 14.5 0.00 0.00 0.00 37 1017.2
20260503212531 20 301 3.2 17.7 0.00 0.00 0.00 37 1017.3
20260503212029 20 331 4.8 17.7 0.00 0.00 0.00 38 1017.4
20260503211540 20 230 4.8 14.5 0.00 0.00 0.00 38 1017.2
20260503211030 20 271 6.4 14.5 0.00 0.00 0.00 39 1017.5
20260503210531 20 291 3.2 14.5 0.00 0.00 0.00 39 1017.5
20260503210048 20 211 3.2 14.5 0.00 0.00 0.00 38 1017.5
20260503205533 20 281 4.8 14.5 0.00 0.00 0.00 39 1017.6
20260503205033 20 263 4.8 11.3 0.00 0.00 0.00 39 1017.5
20260503204557 20 192 3.2 24.1 0.00 0.00 0.00 40 1017.4
20260503204030 20 227 4.8 24.1 0.00 0.00 0.00 40 1017.6
20260503203529 20 221 4.8 17.7 0.00 0.00 0.00 42 1017.7
20260503203042 20 323 4.8 17.7 0.00 0.00 0.00 41 1017.7
20260503202529 20 223 3.2 17.7 0.00 0.00 0.00 41 1017.8
20260503202030 20 215 6.4 17.7 0.00 0.00 0.00 41 1017.9
20260503201539 20 197 6.4 19.3 0.00 0.00 0.00 42 1018.0
20260503201030 20 202 6.4 20.9 0.00 0.00 0.00 42 1017.9
20260503200530 20 205 4.8 24.1 0.00 0.00 0.00 42 1018.0
20260503200047 20 192 12.9 24.1 0.00 0.00 0.00 41 1018.1
20260503195530 20 214 8.0 20.9 0.00 0.00 0.00 42 1018.2
20260503195032 20 217 4.8 16.1 0.00 0.00 0.00 42 1018.3
20260503194545 20 277 9.7 16.1 0.00 0.00 0.00 43 1018.4
20260503194033 20 214 6.4 14.5 0.00 0.00 0.00 42 1018.5
20260503193532 20 299 4.8 17.7 0.00 0.00 0.00 40 1018.7
20260503193042 20 190 4.8 17.7 0.00 0.00 0.00 42 1018.7
20260503192531 20 311 6.4 19.3 0.00 0.00 0.00 40 1018.8
20260503192031 20 190 4.8 19.3 0.00 0.00 0.00 41 1018.9
20260503191543 20 236 8.0 16.1 0.00 0.00 0.00 40 1019.0
20260503191031 20 183 6.4 16.1 0.00 0.00 0.00 39 1019.1
20260503190530 20 194 6.4 16.1 0.00 0.00 0.00 41 1019.2
20260503190046 20 271 8.0 16.1 0.00 0.00 0.00 42 1019.3
20260503185532 20 170 4.8 17.7 0.00 0.00 0.00 42 1019.3
20260503185030 20 225 6.4 22.5 0.00 0.00 0.00 42 1019.4
20260503184551 20 186 9.7 22.5 0.00 0.00 0.00 42 1019.4
20260503184030 20 245 4.8 16.1 0.00 0.00 0.00 42 1019.4
20260503183532 19 219 8.0 16.1 0.00 0.00 0.00 43 1019.5
20260503183051 18 304 4.8 17.7 0.00 0.00 0.00 43 1019.5
20260503182531 18 79 8.0 17.7 0.00 0.00 0.00 42 1019.5
20260503182031 19 331 8.0 17.7 0.00 0.00 0.00 43 1019.6
20260503181542 18 5 4.8 14.5 0.00 0.00 0.00 43 1019.6
20260503181032 18 294 4.8 17.7 0.00 0.00 0.00 42 1019.6
20260503180530 18 350 8.0 17.7 0.00 0.00 0.00 42 1019.6
20260503180046 18 5 1.6 19.3 0.00 0.00 0.00 42 1019.7
20260503175532 18 0 4.8 19.3 0.00 0.00 0.00 42 1019.8
20260503175031 18 350 6.4 19.3 0.00 0.00 0.00 43 1019.8
20260503174540 18 40 3.2 12.9 0.00 0.00 0.00 42 1019.8
20260503174034 18 257 3.2 17.7 0.00 0.00 0.00 43 1019.9
20260503173527 18 302 6.4 17.7 0.00 0.00 0.00 41 1019.9
20260503173101 18 318 8.0 16.1 0.00 0.00 0.00 41 1020.0
20260503172529 17 330 4.8 14.5 0.00 0.00 0.00 42 1020.0
20260503172027 17 234 3.2 14.5 0.00 0.00 0.00 42 1020.1
20260503171547 17 211 4.8 14.5 0.00 0.00 0.00 43 1020.1
20260503171031 17 215 3.2 12.9 0.00 0.00 0.00 43 1020.1
20260503170530 17 304 6.4 12.9 0.00 0.00 0.00 45 1020.1
20260503150532 15 296 4.8 12.9 0.00 0.00 0.00 55 1020.7
20260503131034 11 313 1.6 8.0 0.00 0.00 0.00 76 1020.2
20260503130531 10 315 3.2 8.0 0.00 0.00 0.00 76 1020.2
20260503110530 5 0 0.0 3.2 0.00 0.00 0.00 86 1019.5
20260503081552 7 0 0.0 0.0 0.00 0.00 0.00 81 1018.2
20260503081031 7 0 0.0 0.0 0.00 0.00 0.00 80 1018.1
20260503080532 7 0 0.0 1.6 0.00 0.00 0.00 80 1018.1
20260503072532 7 0 0.0 1.6 0.00 0.00 0.00 79 1017.8
20260503072032 7 0 0.0 3.2 0.00 0.00 0.00 79 1017.7
20260503071545 7 0 0.0 3.2 0.00 0.00 0.00 79 1017.7
20260503071029 7 0 0.0 3.2 0.00 0.00 0.00 78 1017.8
20260503070534 8 0 0.0 0.0 0.00 0.00 0.00 77 1017.7
20260503055029 10 0 0.0 0.0 0.00 0.00 0.00 68 1017.8
20260503054543 10 0 0.0 1.6 0.00 0.00 0.00 68 1017.7
20260503054100 10 0 0.0 3.2 0.00 0.00 0.00 67 1017.7
20260503053535 10 0 0.0 3.2 0.00 0.00 0.00 67 1017.7
20260503053041 10 327 0.0 3.2 0.00 0.00 0.00 67 1017.6
20260503052531 10 0 0.0 4.8 0.00 0.00 0.00 67 1017.5
20260503052032 10 327 0.0 6.4 0.00 0.00 0.00 68 1017.5
20260503051540 10 326 1.6 6.4 0.00 0.00 0.00 69 1017.5
20260503051031 9 327 3.2 6.4 0.00 0.00 0.00 71 1017.5
20260503050531 9 331 1.6 4.8 0.00 0.00 0.00 72 1017.5
20260503050048 9 0 0.0 4.8 0.00 0.00 0.00 72 1017.5
20260503045531 9 0 0.0 0.0 0.00 0.00 0.00 72 1017.4
20260503045034 9 0 0.0 0.0 0.00 0.00 0.00 72 1017.4
20260503044548 9 0 0.0 0.0 0.00 0.00 0.00 71 1017.4
20260503044033 10 0 0.0 0.0 0.00 0.00 0.00 71 1017.4
20260503043532 10 0 0.0 0.0 0.00 0.00 0.00 71 1017.4
20260503043042 10 0 0.0 0.0 0.00 0.00 0.00 70 1017.3
20260503042531 10 0 0.0 0.0 0.00 0.00 0.00 69 1017.3
20260503042030 10 0 0.0 0.0 0.00 0.00 0.00 69 1017.1
20260503041543 10 0 0.0 0.0 0.00 0.00 0.00 67 1017.0
20260503041029 10 0 0.0 0.0 0.00 0.00 0.00 66 1016.9
20260503040532 10 0 0.0 0.0 0.00 0.00 0.00 65 1017.0
20260503040045 10 0 0.0 0.0 0.00 0.00 0.00 65 1017.0
20260503035535 10 0 0.0 0.0 0.00 0.00 0.00 65 1017.0
20260503035036 10 0 0.0 0.0 0.00 0.00 0.00 65 1017.0
20260503034538 10 0 0.0 0.0 0.00 0.00 0.00 65 1016.8
20260503034031 10 0 0.0 0.0 0.00 0.00 0.00 65 1017.0
20260503033528 10 0 0.0 0.0 0.00 0.00 0.00 65 1016.9
20260503033039 10 0 0.0 0.0 0.00 0.00 0.00 64 1016.8
20260503032532 11 0 0.0 0.0 0.00 0.00 0.00 64 1016.8
20260503032031 11 0 0.0 0.0 0.00 0.00 0.00 64 1016.6
20260503031550 11 0 0.0 0.0 0.00 0.00 0.00 63 1016.7
20260503031031 11 0 0.0 0.0 0.00 0.00 0.00 62 1016.7
20260503030531 11 0 0.0 0.0 0.00 0.00 0.00 62 1016.7
20260503030042 11 0 0.0 0.0 0.00 0.00 0.00 61 1016.6
20260503025533 11 0 0.0 0.0 0.00 0.00 0.00 60 1016.4
20260503025030 11 0 0.0 0.0 0.00 0.00 0.00 59 1016.4
20260503024543 11 0 0.0 0.0 0.00 0.00 0.00 58 1016.3
20260503024031 12 0 0.0 0.0 0.00 0.00 0.00 58 1016.4
20260503023531 12 0 0.0 0.0 0.00 0.00 0.00 57 1016.2
20260503023040 12 0 0.0 0.0 0.00 0.00 0.00 55 1016.1
20260503022530 12 0 0.0 0.0 0.00 0.00 0.00 55 1016.0
20260503022032 12 0 0.0 0.0 0.00 0.00 0.00 54 1016.0
20260503021548 12 0 0.0 0.0 0.00 0.00 0.00 53 1015.9
20260503021032 13 0 0.0 0.0 0.00 0.00 0.00 52 1015.9
20260503020530 13 0 0.0 0.0 0.00 0.00 0.00 52 1015.8
20260503020055 13 0 0.0 0.0 0.00 0.00 0.00 52 1015.6
20260503015529 13 0 0.0 0.0 0.00 0.00 0.00 51 1015.6
20260503015031 13 0 0.0 0.0 0.00 0.00 0.00 49 1015.6
20260503014546 13 0 0.0 0.0 0.00 0.00 0.00 49 1015.5
20260503014031 14 0 0.0 0.0 0.00 0.00 0.00 48 1015.4
20260503013533 14 0 0.0 0.0 0.00 0.00 0.00 47 1015.3
20260503013043 14 0 0.0 0.0 0.00 0.00 0.00 47 1015.3
20260503012532 15 0 0.0 3.2 0.00 0.00 0.00 46 1015.3
20260503012031 15 0 0.0 3.2 0.00 0.00 0.00 46 1015.2
20260503011600 15 0 0.0 4.8 0.00 0.00 0.00 45 1015.2
20260503011031 15 327 0.0 4.8 0.00 0.00 0.00 45 1015.2